Hourly Data Report for October 23, 2013

All times are specified in Local Standard Time (LST). Add 1 hour to adjust for Daylight Saving Time where and when it is observed.

PETAWAWA AWOS 2
ONTARIO

45°57'00.000" N
77°19'00.000" W
130.10 m
6106396
71625
YWA

Download Data

Hourly Data (October 2013)
Hourly Data Report for October 23, 2013
Temp Definition
°C
Dew Point Temp Definition
°C
Rel Hum Definition
%
Wind Dir Definition
10's deg

Wind Spd Definition
km/h
Visibility Definition
km
Stn Press Definition
kPa
Hmdx Definition


Wind Chill Definition


Weather Definition


TIME
00:00 1.6 0.6 93 27 7 15.0 99.10      
01:00 1.2 -0.1 91 25 7 15.0 99.13      
02:00 0.9 -0.3 92 25 6 15.0 99.15      
03:00 0.3 -0.6 94 27 6 15.0 99.12      
04:00 -1.5 -2.6 92 23 4 15.0 99.12   -3  
05:00 -0.7 -1.7 93 26 6 15.0 99.12   -3  
06:00 -2.4 -2.9 96 21 4 15.0 99.12   -4  
07:00 -1.3 -2.2 94 25 4 15.0 99.16   -3  
08:00 0.7 -0.9 89 27 4 15.0 99.15      
09:00 2.1 -0.2 85 24 4 15.0 99.15      
10:00 2.6 -0.9 78 30 9 15.0 99.13      
11:00 4.0 -1.0 70 25 11 15.0 99.12      
12:00
13:00 4.4 0.0 73 25 4 15.0 98.96      
14:00 6.3 -2.1 55 28 11 15.0 98.91      
15:00 5.9 -3.4 51 27 17 15.0 98.94      
16:00 4.3 -4.1 54 27 19 15.0 98.99      
17:00 3.3 -4.4 57 27 15 15.0 99.07      
18:00 2.3 -5.0 58 26 7 15.0 99.10      
19:00 -2.1 -4.3 85   0 15.0 99.08      
20:00 -2.7 -4.0 91 24 4 15.0 99.04   -4  
21:00 -3.4 -4.5 92 22 4 15.0 99.02   -5  
22:00 -1.5 -3.7 85 21 6 15.0 98.99   -4  
23:00 -2.4 -3.9 89   0 15.0 98.96      

Notes on Data Quality.

Legend

  • E = Estimated
  • M = Missing
  • NA = Not Available
  • ‡ = Partner data that is not subject to review by the National Climate Archives
Date modified: